BELINTERSAT-1

Last updated on Jan. 27, 2020, 4:38 a.m. UTC

1 41238U 16001A   20026.85861454  .00000101  00000-0  00000-0 0  9999
2 41238   0.0150  46.9228 0000928 171.6454 267.6226  1.00269952 14868
UTC
Height (km)
Latitude
Longitude
Inclination
Orbital Period
UTC large
Height (km)
Speed (km/s)
/
Latitude / Longitude
Inclination (degrees)
Orbital Period (minutes)
Azimuth
Elevation
Range (km)
Doppler Factor
iOS Compass Heading
iOS Angle

Next 30 passes for location: Hong Kong

Rise time Rise Azimuth (degrees) Set time Set Azimuth (degrees) Duration Max altitude (degrees)

No matching passes for this satellites